Home   Weather   Castries   Past weeks

Flag for Saint Lucia Past Weather in Castries, Saint Lucia — Yesterday and Last 2 Weeks

Now
79 °F

Passing clouds.


Feels Like: 82 °F
Forecast: 75 / 81 °F
Wind: 6 mph from West

Location: Vigie

Current Time: Feb 21, 2017 at 9:53:26 pm

Latest Report: Feb 21, 2017 at 9:00 pm


Visibility: N/A

Pressure: 29.86 "Hg

Humidity: 79%

Dew Point: 72 °F

Location of CastriesLocation

Past Weather in Castries — Graph

°F

Castries Temperature Yesterday

Maximum temperature yesterday: 81 °F (at 5:00 pm)
Minimum temperature yesterday: 77 °F (at 2:00 am)
Average temperature yesterday: 78 °F

High & Low Weather Summary for the Past Weeks

 TemperatureHumidityPressure
High84 °F (Feb 7, 12:00 pm)100% (Feb 19, 11:00 am)30.09 "Hg (Feb 19, 11:00 am)
Low70 °F (Feb 11, 9:00 am)51% (Feb 19, 2:00 pm)29.80 "Hg (Feb 21, 5:00 pm)
Average80 °F71%29.99 "Hg
* Reported Feb 7 7:00 am — Feb 21 8:00 pm, Castries, Weather by CustomWeather, © 2017

Note: Actual official high and low records may vary slightly from our data, if they occured in-between our weather recording intervals... More about our weather records

Advertising

Castries Weather History for the Previous 24 Hours

Scroll right to see more
 ConditionsComfort  
Time TempWeatherWind HumidityBarometerVisibility
8:00 pm
Tue, Feb 21
81 °FPassing clouds.13 mph74%29.86 "HgN/A
7:00 pm79 °FPassing clouds.8 mph79%29.86 "HgN/A
6:00 pm77 °FPartly sunny.6 mph83%29.83 "HgN/A
5:38 pm75 °FPartly sunny.8 mph94%29.83 "HgN/A
5:00 pm81 °FBroken clouds.10 mph74%29.80 "Hg4 mi
4:00 pm82 °FPartly sunny.13 mph62%29.89 "HgN/A
3:00 pm84 °FScattered clouds.9 mph62%29.92 "HgN/A
2:00 pm84 °FPartly sunny.13 mph62%29.83 "HgN/A
1:00 pm84 °FPassing clouds.10 mph66%29.86 "HgN/A
12:00 pm82 °FPartly sunny.10 mph66%29.98 "HgN/A
11:00 am81 °FScattered clouds.3 mph74%29.92 "HgN/A
10:00 am82 °FScattered clouds.5 mph70%29.92 "HgN/A
9:00 am82 °FPassing clouds.5 mph66%29.92 "HgN/A
8:00 am79 °FPassing clouds.7 mph79%29.89 "HgN/A
7:00 am75 °FScattered clouds.No wind83%29.89 "HgN/A
6:00 am73 °FPassing clouds.No wind89%29.89 "HgN/A
Weather by CustomWeather, © 2017

See weather overviewHow to use our weather pages